sat.trackr.live / text

‹ back to catalog

STARLINK-31795

NORAD 59645 · 2024-082Q

PAYLOAD ACTIVE UNKNOWN

§ Identity

Operator
Country
US
Launch date
2024-05-03
Launch site
AFETR
Launch vehicle
Mass (kg)
RCS (m²)

Purposes: comms

External: N2YO · Heavens-Above · Gunter

§ Orbital elements

Epoch: 2026-05-24T22:51:59.307264Z

Period
94.27 min
Inclination
43.0056°
Eccentricity
0.0001313
Mean motion
15.27576890 rev/d
Perigee alt
482.2 km
Apogee alt
484.0 km
Semi-major
6,861.2 km
B*
-8.2456e-5
RAAN
10.5485°
Arg perigee
281.6364°
Mean anomaly
78.4341°
Rev number
11,714

§ Raw data

STARLINK-317951 59645U 24082Q   26144.95276976 -.00002530  00000+0 -82456-4 0  99932 59645  43.0056  10.5485 0001313 281.6364  78.4341 15.27576890117141

JSON: /api/v1/satellites/59645 · /tle

For live sub-satellite position, see the globe view (requires WebGL).

§ Visibility from observer

Set your observer location to see the next 7 days of passes ≥ 10°. The values pass through the URL so the page stays shareable.

No JS? Fill the form by hand. The geolocation button needs JavaScript.